Time,TemperatureF,DewpointF,PressureIn,WindDirection,WindDirectionDegrees,WindSpeedMPH,WindSpeedGustMPH,Humidity,HourlyPrecipIn,Conditions,Clouds,dailyrainin,SoftwareType,DateUTC
2013-05-30 00:00:00,71.1,64.3,30.09,NE,47,0.0,0.0,79,0.00,,---,0.00,VWS V14.01,2013-05-30 04:00:00,
2013-05-30 00:01:00,71.0,64.2,30.09,NE,46,0.0,0.0,79,0.00,,---,0.00,VWS V14.01,2013-05-30 04:01:00,
2013-05-30 00:06:00,71.0,64.2,30.10,NE,46,0.0,0.0,79,0.00,,---,0.00,VWS V14.01,2013-05-30 04:06:00,
2013-05-30 00:10:00,70.9,64.1,30.10,NE,47,0.0,0.0,79,0.00,,---,0.00,VWS V14.01,2013-05-30 04:10:00,
2013-05-30 00:11:00,70.9,64.1,30.10,NE,47,0.0,0.0,79,0.00,,---,0.00,VWS V14.01,2013-05-30 04:11:00,
2013-05-30 00:16:00,70.8,64.0,30.10,NE,47,0.0,0.0,79,0.00,,---,0.00,VWS V14.01,2013-05-30 04:16:00,
2013-05-30 00:20:00,70.8,64.0,30.10,NE,46,0.0,0.0,79,0.00,,---,0.00,VWS V14.01,2013-05-30 04:20:00,
2013-05-30 00:21:00,70.7,63.9,30.10,NE,47,0.0,0.0,79,0.00,,---,0.00,VWS V14.01,2013-05-30 04:21:00,
2013-05-30 00:26:00,70.6,63.8,30.09,NE,47,0.0,0.0,79,0.00,,---,0.00,VWS V14.01,2013-05-30 04:26:00,
2013-05-30 00:30:00,70.5,63.7,30.09,NE,47,0.0,0.0,79,0.00,,---,0.00,VWS V14.01,2013-05-30 04:30:00,
2013-05-30 00:31:00,70.5,63.7,30.09,NE,46,0.0,0.0,79,0.00,,---,0.00,VWS V14.01,2013-05-30 04:31:00,
2013-05-30 00:36:00,70.4,63.6,30.09,NE,47,0.0,0.0,79,0.00,,---,0.00,VWS V14.01,2013-05-30 04:36:00,
2013-05-30 00:40:00,70.3,63.5,30.09,NE,46,0.0,0.0,79,0.00,,---,0.00,VWS V14.01,2013-05-30 04:40:00,
2013-05-30 00:41:00,70.3,63.8,30.09,NE,46,0.0,0.0,80,0.00,,---,0.00,VWS V14.01,2013-05-30 04:41:00,
2013-05-30 00:46:00,70.2,63.8,30.09,NE,47,0.0,0.0,80,0.00,,---,0.00,VWS V14.01,2013-05-30 04:46:00,
2013-05-30 00:50:00,70.1,63.3,30.09,NE,46,0.0,0.0,79,0.00,,---,0.00,VWS V14.01,2013-05-30 04:50:00,
2013-05-30 00:51:00,70.1,63.3,30.09,NE,46,0.0,0.0,79,0.00,,---,0.00,VWS V14.01,2013-05-30 04:51:00,
2013-05-30 00:56:00,70.1,63.3,30.09,NE,46,0.0,0.0,79,0.00,,---,0.00,VWS V14.01,2013-05-30 04:56:00,
2013-05-30 01:00:00,70.1,63.3,30.09,NE,47,0.0,0.0,79,0.00,,---,0.00,VWS V14.01,2013-05-30 05:00:00,
2013-05-30 01:01:00,70.1,63.3,30.09,NE,46,0.0,0.0,79,0.00,,---,0.00,VWS V14.01,2013-05-30 05:01:00,
2013-05-30 01:06:00,70.1,63.3,30.09,NE,47,0.0,0.0,79,0.00,,---,0.00,VWS V14.01,2013-05-30 05:06:00,
2013-05-30 01:10:00,70.2,63.4,30.09,NE,47,0.0,0.0,79,0.00,,---,0.00,VWS V14.01,2013-05-30 05:10:00,
2013-05-30 01:11:00,70.2,63.4,30.09,NE,47,0.0,0.0,79,0.00,,---,0.00,VWS V14.01,2013-05-30 05:11:00,
2013-05-30 01:16:00,70.2,63.4,30.09,NE,47,0.0,0.0,79,0.00,,---,0.00,VWS V14.01,2013-05-30 05:16:00,
2013-05-30 01:20:00,70.1,62.9,30.10,NE,46,0.0,0.0,78,0.00,,---,0.00,VWS V14.01,2013-05-30 05:20:00,
2013-05-30 01:21:00,70.1,63.3,30.09,NE,47,0.0,0.0,79,0.00,,---,0.00,VWS V14.01,2013-05-30 05:21:00,
2013-05-30 01:26:00,70.1,63.3,30.09,NE,46,0.0,0.0,79,0.00,,---,0.00,VWS V14.01,2013-05-30 05:26:00,
2013-05-30 01:30:00,70.0,63.2,30.09,NE,47,0.0,0.0,79,0.00,,---,0.00,VWS V14.01,2013-05-30 05:30:00,
2013-05-30 01:31:00,69.9,63.1,30.09,NE,46,0.0,0.0,79,0.00,,---,0.00,VWS V14.01,2013-05-30 05:31:00,
2013-05-30 01:36:00,69.9,63.1,30.09,NE,46,0.0,0.0,79,0.00,,---,0.00,VWS V14.01,2013-05-30 05:36:00,
2013-05-30 01:40:00,69.9,63.1,30.09,NE,47,0.0,0.0,79,0.00,,---,0.00,VWS V14.01,2013-05-30 05:40:00,
2013-05-30 01:41:00,69.9,63.1,30.09,NE,47,0.0,0.0,79,0.00,,---,0.00,VWS V14.01,2013-05-30 05:41:00,
2013-05-30 01:46:00,70.5,63.7,30.09,NE,44,0.0,1.0,79,0.00,,---,0.00,VWS V14.01,2013-05-30 05:46:00,
2013-05-30 01:50:00,71.2,63.6,30.09,NE,46,0.0,1.0,77,0.00,,---,0.00,VWS V14.01,2013-05-30 05:50:00,
2013-05-30 01:51:00,71.4,63.8,30.09,NE,46,0.0,0.0,77,0.00,,---,0.00,VWS V14.01,2013-05-30 05:51:00,
2013-05-30 01:56:00,71.4,63.5,30.10,NE,46,0.0,0.0,76,0.00,,---,0.00,VWS V14.01,2013-05-30 05:56:00,
2013-05-30 02:00:00,71.1,63.2,30.10,NE,46,0.0,0.0,76,0.00,,---,0.00,VWS V14.01,2013-05-30 06:00:00,
2013-05-30 02:01:00,71.1,63.2,30.10,NE,46,0.0,0.0,76,0.00,,---,0.00,VWS V14.01,2013-05-30 06:01:00,
2013-05-30 02:06:00,70.7,63.1,30.09,NE,46,0.0,0.0,77,0.00,,---,0.00,VWS V14.01,2013-05-30 06:06:00,
2013-05-30 02:10:00,70.4,62.8,30.10,NE,46,0.0,0.0,77,0.00,,---,0.00,VWS V14.01,2013-05-30 06:10:00,
2013-05-30 02:11:00,70.3,62.8,30.09,NE,46,0.0,0.0,77,0.00,,---,0.00,VWS V14.01,2013-05-30 06:11:00,
2013-05-30 02:16:00,70.1,62.9,30.09,NE,46,0.0,0.0,78,0.00,,---,0.00,VWS V14.01,2013-05-30 06:16:00,
2013-05-30 02:20:00,70.0,62.8,30.10,NE,46,0.0,0.0,78,0.00,,---,0.00,VWS V14.01,2013-05-30 06:20:00,
2013-05-30 02:21:00,70.0,62.8,30.10,NE,46,0.0,0.0,78,0.00,,---,0.00,VWS V14.01,2013-05-30 06:21:00,
2013-05-30 02:26:00,70.0,63.2,30.10,NE,46,0.0,0.0,79,0.00,,---,0.00,VWS V14.01,2013-05-30 06:26:00,
2013-05-30 02:30:00,69.9,63.1,30.10,NE,46,0.0,0.0,79,0.00,,---,0.00,VWS V14.01,2013-05-30 06:30:00,
2013-05-30 02:31:00,69.9,63.1,30.10,NE,46,0.0,0.0,79,0.00,,---,0.00,VWS V14.01,2013-05-30 06:31:00,
2013-05-30 02:36:00,69.8,63.0,30.10,NE,46,0.0,0.0,79,0.00,,---,0.00,VWS V14.01,2013-05-30 06:36:00,
2013-05-30 02:40:00,69.7,62.9,30.11,NE,46,0.0,0.0,79,0.00,,---,0.00,VWS V14.01,2013-05-30 06:40:00,
2013-05-30 02:41:00,69.7,63.3,30.11,NE,46,0.0,0.0,80,0.00,,---,0.00,VWS V14.01,2013-05-30 06:41:00,
2013-05-30 02:46:00,69.6,63.2,30.11,NE,46,0.0,0.0,80,0.00,,---,0.00,VWS V14.01,2013-05-30 06:46:00,
2013-05-30 02:50:00,69.5,63.1,30.11,NE,46,0.0,0.0,80,0.00,,---,0.00,VWS V14.01,2013-05-30 06:50:00,
2013-05-30 02:51:00,69.5,63.1,30.10,NE,46,0.0,0.0,80,0.00,,---,0.00,VWS V14.01,2013-05-30 06:51:00,
2013-05-30 02:56:00,69.3,63.2,30.11,NE,46,0.0,0.0,81,0.00,,---,0.00,VWS V14.01,2013-05-30 06:56:00,
2013-05-30 03:00:00,69.2,63.1,30.11,NE,46,0.0,0.0,81,0.00,,---,0.00,VWS V14.01,2013-05-30 07:00:00,
2013-05-30 03:01:00,69.2,63.1,30.11,NE,46,0.0,0.0,81,0.00,,---,0.00,VWS V14.01,2013-05-30 07:01:00,
2013-05-30 03:06:00,69.1,63.0,30.11,NE,46,0.0,0.0,81,0.00,,---,0.00,VWS V14.01,2013-05-30 07:06:00,
2013-05-30 03:10:00,69.0,62.9,30.11,NE,46,0.0,0.0,81,0.00,,---,0.00,VWS V14.01,2013-05-30 07:10:00,
2013-05-30 03:11:00,69.0,63.3,30.11,NE,46,0.0,0.0,82,0.00,,---,0.00,VWS V14.01,2013-05-30 07:11:00,
2013-05-30 03:16:00,69.0,63.3,30.11,NE,46,0.0,0.0,82,0.00,,---,0.00,VWS V14.01,2013-05-30 07:16:00,
2013-05-30 03:20:00,68.9,63.2,30.11,NE,46,0.0,0.0,82,0.00,,---,0.00,VWS V14.01,2013-05-30 07:20:00,
2013-05-30 03:21:00,68.9,63.2,30.11,NE,46,0.0,0.0,82,0.00,,---,0.00,VWS V14.01,2013-05-30 07:21:00,
2013-05-30 03:26:00,68.8,63.1,30.11,NE,46,0.0,0.0,82,0.00,,---,0.00,VWS V14.01,2013-05-30 07:26:00,
2013-05-30 03:30:00,68.6,63.2,30.11,NE,46,0.0,0.0,83,0.00,,---,0.00,VWS V14.01,2013-05-30 07:30:00,
2013-05-30 03:31:00,68.6,63.2,30.11,NE,46,0.0,0.0,83,0.00,,---,0.00,VWS V14.01,2013-05-30 07:31:00,
2013-05-30 03:36:00,68.5,63.1,30.11,NE,46,0.0,0.0,83,0.00,,---,0.00,VWS V14.01,2013-05-30 07:36:00,
2013-05-30 03:40:00,68.4,63.0,30.11,NE,46,0.0,0.0,83,0.00,,---,0.00,VWS V14.01,2013-05-30 07:40:00,
2013-05-30 03:41:00,68.4,63.0,30.11,NE,46,0.0,0.0,83,0.00,,---,0.00,VWS V14.01,2013-05-30 07:41:00,
2013-05-30 03:46:00,68.3,63.3,30.11,NE,46,0.0,0.0,84,0.00,,---,0.00,VWS V14.01,2013-05-30 07:46:00,
2013-05-30 03:50:00,68.2,63.2,30.11,NE,46,0.0,0.0,84,0.00,,---,0.00,VWS V14.01,2013-05-30 07:50:00,
2013-05-30 03:51:00,68.2,63.2,30.11,NE,46,0.0,0.0,84,0.00,,---,0.00,VWS V14.01,2013-05-30 07:51:00,
2013-05-30 03:56:00,68.1,63.1,30.11,NE,46,0.0,0.0,84,0.00,,---,0.00,VWS V14.01,2013-05-30 07:56:00,
2013-05-30 04:00:00,68.0,63.0,30.11,NE,46,0.0,0.0,84,0.00,,---,0.00,VWS V14.01,2013-05-30 08:00:00,
2013-05-30 04:01:00,68.0,63.0,30.12,NE,46,0.0,0.0,84,0.00,,---,0.00,VWS V14.01,2013-05-30 08:01:00,
2013-05-30 04:06:00,67.9,63.2,30.12,NE,46,0.0,0.0,85,0.00,,---,0.00,VWS V14.01,2013-05-30 08:06:00,
2013-05-30 04:10:00,67.8,63.1,30.12,NE,46,0.0,0.0,85,0.00,,---,0.00,VWS V14.01,2013-05-30 08:10:00,
2013-05-30 04:11:00,67.7,63.0,30.12,NE,46,0.0,0.0,85,0.00,,---,0.00,VWS V14.01,2013-05-30 08:11:00,
2013-05-30 04:16:00,67.6,62.9,30.12,NE,46,0.0,0.0,85,0.00,,---,0.00,VWS V14.01,2013-05-30 08:16:00,
2013-05-30 04:20:00,67.5,62.8,30.12,NE,46,0.0,0.0,85,0.00,,---,0.00,VWS V14.01,2013-05-30 08:20:00,
2013-05-30 04:21:00,67.5,62.8,30.12,NE,46,0.0,0.0,85,0.00,,---,0.00,VWS V14.01,2013-05-30 08:21:00,
2013-05-30 04:26:00,67.3,63.0,30.12,NE,46,0.0,0.0,86,0.00,,---,0.00,VWS V14.01,2013-05-30 08:26:00,
2013-05-30 04:30:00,67.3,63.0,30.12,NE,46,0.0,0.0,86,0.00,,---,0.00,VWS V14.01,2013-05-30 08:30:00,
2013-05-30 04:31:00,67.3,63.0,30.12,NE,46,0.0,0.0,86,0.00,,---,0.00,VWS V14.01,2013-05-30 08:31:00,
2013-05-30 04:36:00,67.2,62.9,30.13,NE,46,0.0,0.0,86,0.00,,---,0.00,VWS V14.01,2013-05-30 08:36:00,
2013-05-30 04:40:00,67.2,62.9,30.13,NE,46,0.0,0.0,86,0.00,,---,0.00,VWS V14.01,2013-05-30 08:40:00,
2013-05-30 04:41:00,67.1,62.8,30.13,NE,46,0.0,0.0,86,0.00,,---,0.00,VWS V14.01,2013-05-30 08:41:00,
2013-05-30 04:46:00,67.1,63.1,30.13,NE,46,0.0,0.0,87,0.00,,---,0.00,VWS V14.01,2013-05-30 08:46:00,
2013-05-30 04:50:00,67.0,63.0,30.13,NE,46,0.0,0.0,87,0.00,,---,0.00,VWS V14.01,2013-05-30 08:50:00,
2013-05-30 04:51:00,66.9,62.9,30.13,NE,46,0.0,0.0,87,0.00,,---,0.00,VWS V14.01,2013-05-30 08:51:00,
2013-05-30 04:56:00,66.8,62.8,30.13,NE,46,0.0,0.0,87,0.00,,---,0.00,VWS V14.01,2013-05-30 08:56:00,
2013-05-30 05:00:00,66.8,63.1,30.13,NE,46,0.0,0.0,88,0.00,,---,0.00,VWS V14.01,2013-05-30 09:00:00,
2013-05-30 05:01:00,66.8,63.1,30.13,NE,45,0.0,0.0,88,0.00,,---,0.00,VWS V14.01,2013-05-30 09:01:00,
2013-05-30 05:06:00,66.7,63.0,30.13,NE,46,0.0,0.0,88,0.00,,---,0.00,VWS V14.01,2013-05-30 09:06:00,
2013-05-30 05:10:00,66.7,63.0,30.13,NE,46,0.0,0.0,88,0.00,,---,0.00,VWS V14.01,2013-05-30 09:10:00,
2013-05-30 05:11:00,66.6,62.9,30.13,NE,46,0.0,0.0,88,0.00,,---,0.00,VWS V14.01,2013-05-30 09:11:00,
2013-05-30 05:16:00,66.5,62.8,30.14,NE,46,0.0,0.0,88,0.00,,---,0.00,VWS V14.01,2013-05-30 09:16:00,
2013-05-30 05:20:00,66.4,62.7,30.14,NE,46,0.0,0.0,88,0.00,,---,0.00,VWS V14.01,2013-05-30 09:20:00,
2013-05-30 05:21:00,66.4,62.7,30.14,NE,46,0.0,0.0,88,0.00,,---,0.00,VWS V14.01,2013-05-30 09:21:00,
2013-05-30 05:26:00,66.3,62.6,30.14,NE,46,0.0,0.0,88,0.00,,---,0.00,VWS V14.01,2013-05-30 09:26:00,
2013-05-30 05:30:00,66.2,62.9,30.14,NE,46,0.0,0.0,89,0.00,,---,0.00,VWS V14.01,2013-05-30 09:30:00,
2013-05-30 05:31:00,66.2,62.9,30.14,NE,46,0.0,0.0,89,0.00,,---,0.00,VWS V14.01,2013-05-30 09:31:00,
2013-05-30 05:36:00,66.2,62.9,30.14,NE,46,0.0,0.0,89,0.00,,---,0.00,VWS V14.01,2013-05-30 09:36:00,
2013-05-30 05:40:00,66.1,62.8,30.14,NE,46,0.0,0.0,89,0.00,,---,0.00,VWS V14.01,2013-05-30 09:40:00,
2013-05-30 05:41:00,66.1,62.8,30.14,NE,46,0.0,0.0,89,0.00,,---,0.00,VWS V14.01,2013-05-30 09:41:00,
2013-05-30 05:46:00,66.0,62.7,30.14,NE,46,0.0,0.0,89,0.00,,---,0.00,VWS V14.01,2013-05-30 09:46:00,
2013-05-30 05:50:00,66.0,62.7,30.15,NE,45,0.0,0.0,89,0.00,,---,0.00,VWS V14.01,2013-05-30 09:50:00,
2013-05-30 05:51:00,66.0,62.7,30.15,NE,46,0.0,0.0,89,0.00,,---,0.00,VWS V14.01,2013-05-30 09:51:00,
2013-05-30 05:56:00,66.1,63.1,30.15,NE,46,0.0,0.0,90,0.00,,---,0.00,VWS V14.01,2013-05-30 09:56:00,
2013-05-30 06:00:00,66.2,63.2,30.15,NE,46,0.0,0.0,90,0.00,,---,0.00,VWS V14.01,2013-05-30 10:00:00,
2013-05-30 06:01:00,66.2,63.2,30.15,NE,46,0.0,0.0,90,0.00,,---,0.00,VWS V14.01,2013-05-30 10:01:00,
2013-05-30 06:06:00,66.2,63.2,30.15,NE,46,0.0,0.0,90,0.00,,---,0.00,VWS V14.01,2013-05-30 10:06:00,
2013-05-30 06:10:00,66.2,63.2,30.15,NE,46,0.0,0.0,90,0.00,,---,0.00,VWS V14.01,2013-05-30 10:10:00,
2013-05-30 06:11:00,66.3,63.3,30.15,NE,46,0.0,0.0,90,0.00,,---,0.00,VWS V14.01,2013-05-30 10:11:00,
2013-05-30 06:16:00,66.3,63.3,30.15,NE,46,0.0,0.0,90,0.00,,---,0.00,VWS V14.01,2013-05-30 10:16:00,
2013-05-30 06:20:00,66.4,63.4,30.16,NE,46,0.0,0.0,90,0.00,,---,0.00,VWS V14.01,2013-05-30 10:20:00,
2013-05-30 06:21:00,66.4,63.4,30.16,NE,46,0.0,0.0,90,0.00,,---,0.00,VWS V14.01,2013-05-30 10:21:00,
2013-05-30 06:26:00,66.5,63.5,30.16,NE,46,0.0,0.0,90,0.00,,---,0.00,VWS V14.01,2013-05-30 10:26:00,
2013-05-30 06:30:00,66.5,63.5,30.16,NE,46,0.0,0.0,90,0.00,,---,0.00,VWS V14.01,2013-05-30 10:30:00,
2013-05-30 06:31:00,66.6,63.6,30.16,NE,45,0.0,0.0,90,0.00,,---,0.00,VWS V14.01,2013-05-30 10:31:00,
2013-05-30 06:36:00,66.6,63.6,30.16,NE,46,0.0,0.0,90,0.00,,---,0.00,VWS V14.01,2013-05-30 10:36:00,
2013-05-30 06:40:00,66.7,63.7,30.16,NE,46,0.0,0.0,90,0.00,,---,0.00,VWS V14.01,2013-05-30 10:40:00,
2013-05-30 06:41:00,66.7,63.7,30.16,NE,46,0.0,0.0,90,0.00,,---,0.00,VWS V14.01,2013-05-30 10:41:00,
2013-05-30 06:46:00,66.8,63.8,30.16,NE,46,0.0,0.0,90,0.00,,---,0.00,VWS V14.01,2013-05-30 10:46:00,
2013-05-30 06:50:00,66.9,64.2,30.16,NE,46,0.0,0.0,91,0.00,,---,0.00,VWS V14.01,2013-05-30 10:50:00,
2013-05-30 06:51:00,66.9,64.2,30.17,NE,46,0.0,0.0,91,0.00,,---,0.00,VWS V14.01,2013-05-30 10:51:00,
2013-05-30 06:56:00,67.1,64.1,30.17,NE,45,0.0,0.0,90,0.00,,---,0.00,VWS V14.01,2013-05-30 10:56:00,
2013-05-30 07:00:00,67.2,64.2,30.17,NE,46,0.0,0.0,90,0.00,,---,0.00,VWS V14.01,2013-05-30 11:00:00,
2013-05-30 07:01:00,67.2,64.2,30.17,NE,46,0.0,0.0,90,0.00,,---,0.00,VWS V14.01,2013-05-30 11:01:00,
2013-05-30 07:06:00,67.3,64.3,30.17,NE,46,0.0,0.0,90,0.00,,---,0.00,VWS V14.01,2013-05-30 11:06:00,
2013-05-30 07:10:00,67.3,64.3,30.17,NE,46,0.0,0.0,90,0.00,,---,0.00,VWS V14.01,2013-05-30 11:10:00,
2013-05-30 07:11:00,67.3,64.3,30.17,NE,46,0.0,0.0,90,0.00,,---,0.00,VWS V14.01,2013-05-30 11:11:00,
2013-05-30 07:16:00,67.4,64.4,30.17,NE,46,0.0,0.0,90,0.00,,---,0.00,VWS V14.01,2013-05-30 11:16:00,
2013-05-30 07:20:00,67.5,64.5,30.17,NE,46,0.0,0.0,90,0.00,,---,0.00,VWS V14.01,2013-05-30 11:20:00,
2013-05-30 07:21:00,67.5,64.5,30.17,NE,46,0.0,0.0,90,0.00,,---,0.00,VWS V14.01,2013-05-30 11:21:00,
2013-05-30 07:26:00,67.6,64.6,30.17,NE,46,0.0,0.0,90,0.00,,---,0.00,VWS V14.01,2013-05-30 11:26:00,
2013-05-30 07:30:00,67.7,64.7,30.18,NE,47,0.0,0.0,90,0.00,,---,0.00,VWS V14.01,2013-05-30 11:30:00,
2013-05-30 07:31:00,67.7,64.7,30.18,NE,46,0.0,0.0,90,0.00,,---,0.00,VWS V14.01,2013-05-30 11:31:00,
2013-05-30 07:36:00,67.7,64.7,30.18,NE,46,0.0,0.0,90,0.00,,---,0.00,VWS V14.01,2013-05-30 11:36:00,
2013-05-30 07:40:00,67.8,64.8,30.18,NE,46,0.0,0.0,90,0.00,,---,0.00,VWS V14.01,2013-05-30 11:40:00,
2013-05-30 07:41:00,67.8,64.8,30.18,NE,46,0.0,0.0,90,0.00,,---,0.00,VWS V14.01,2013-05-30 11:41:00,
2013-05-30 07:46:00,67.8,64.8,30.18,NE,46,0.0,0.0,90,0.00,,---,0.00,VWS V14.01,2013-05-30 11:46:00,
2013-05-30 07:50:00,67.9,64.9,30.18,NE,47,0.0,0.0,90,0.00,,---,0.00,VWS V14.01,2013-05-30 11:50:00,
2013-05-30 07:51:00,67.9,64.9,30.18,NE,47,0.0,0.0,90,0.00,,---,0.00,VWS V14.01,2013-05-30 11:51:00,
2013-05-30 07:56:00,68.0,65.0,30.18,NE,47,0.0,0.0,90,0.00,,---,0.00,VWS V14.01,2013-05-30 11:56:00,
2013-05-30 08:00:00,68.0,65.0,30.18,ENE,71,0.0,0.0,90,0.00,,---,0.00,VWS V14.01,2013-05-30 12:00:00,
2013-05-30 08:01:00,68.0,65.0,30.18,ENE,71,0.0,0.0,90,0.00,,---,0.00,VWS V14.01,2013-05-30 12:01:00,
2013-05-30 08:06:00,68.1,65.1,30.18,ENE,71,0.0,0.0,90,0.00,,---,0.00,VWS V14.01,2013-05-30 12:06:00,
2013-05-30 08:10:00,68.1,65.1,30.18,ENE,71,0.0,0.0,90,0.00,,---,0.00,VWS V14.01,2013-05-30 12:10:00,
2013-05-30 08:11:00,68.1,65.1,30.18,ENE,71,0.0,0.0,90,0.00,,---,0.00,VWS V14.01,2013-05-30 12:11:00,
2013-05-30 08:16:00,68.1,65.1,30.18,ENE,71,0.0,0.0,90,0.00,,---,0.00,VWS V14.01,2013-05-30 12:16:00,
2013-05-30 08:20:00,68.2,65.2,30.18,ENE,71,0.0,0.0,90,0.00,,---,0.00,VWS V14.01,2013-05-30 12:20:00,
2013-05-30 08:21:00,68.2,65.2,30.18,ENE,71,0.0,0.0,90,0.00,,---,0.00,VWS V14.01,2013-05-30 12:21:00,
2013-05-30 08:26:00,68.3,65.3,30.18,ENE,71,0.0,0.0,90,0.00,,---,0.00,VWS V14.01,2013-05-30 12:26:00,
2013-05-30 08:30:00,68.3,65.3,30.18,ENE,71,0.0,0.0,90,0.00,,---,0.00,VWS V14.01,2013-05-30 12:30:00,
2013-05-30 08:31:00,68.4,65.4,30.18,ENE,71,0.0,0.0,90,0.00,,---,0.00,VWS V14.01,2013-05-30 12:31:00,
2013-05-30 08:36:00,68.4,65.4,30.18,ENE,70,0.0,0.0,90,0.00,,---,0.00,VWS V14.01,2013-05-30 12:36:00,
2013-05-30 08:40:00,68.5,65.1,30.18,ENE,71,0.0,0.0,89,0.00,,---,0.00,VWS V14.01,2013-05-30 12:40:00,
2013-05-30 08:41:00,68.5,65.1,30.18,ENE,70,0.0,0.0,89,0.00,,---,0.00,VWS V14.01,2013-05-30 12:41:00,
2013-05-30 08:46:00,68.6,65.2,30.18,ENE,71,0.0,0.0,89,0.00,,---,0.00,VWS V14.01,2013-05-30 12:46:00,
2013-05-30 08:50:00,68.7,65.3,30.19,ENE,71,0.0,0.0,89,0.00,,---,0.00,VWS V14.01,2013-05-30 12:50:00,
2013-05-30 08:51:00,68.7,65.3,30.19,ENE,70,0.0,0.0,89,0.00,,---,0.00,VWS V14.01,2013-05-30 12:51:00,
2013-05-30 08:56:00,69.0,65.6,30.19,ENE,71,0.0,0.0,89,0.00,,---,0.00,VWS V14.01,2013-05-30 12:56:00,
2013-05-30 09:00:00,69.2,65.8,30.19,ENE,71,0.0,0.0,89,0.00,,---,0.00,VWS V14.01,2013-05-30 13:00:00,
2013-05-30 09:01:00,69.2,65.8,30.19,ENE,71,0.0,0.0,89,0.00,,---,0.00,VWS V14.01,2013-05-30 13:01:00,
2013-05-30 09:06:00,69.5,65.8,30.19,ENE,71,0.0,0.0,88,0.00,,---,0.00,VWS V14.01,2013-05-30 13:06:00,
2013-05-30 09:10:00,69.8,66.1,30.19,ENE,71,0.0,0.0,88,0.00,,---,0.00,VWS V14.01,2013-05-30 13:10:00,
2013-05-30 09:11:00,69.8,66.1,30.19,ENE,71,0.0,0.0,88,0.00,,---,0.00,VWS V14.01,2013-05-30 13:11:00,
2013-05-30 09:16:00,70.2,66.5,30.19,ENE,57,0.0,0.0,88,0.00,,---,0.00,VWS V14.01,2013-05-30 13:16:00,
2013-05-30 09:20:00,70.5,66.4,30.19,ENE,57,0.0,0.0,87,0.00,,---,0.00,VWS V14.01,2013-05-30 13:20:00,
2013-05-30 09:21:00,70.5,66.1,30.19,ENE,57,0.0,0.0,86,0.00,,---,0.00,VWS V14.01,2013-05-30 13:21:00,
2013-05-30 09:26:00,70.8,66.4,30.19,NE,56,0.0,0.0,86,0.00,,---,0.00,VWS V14.01,2013-05-30 13:26:00,
2013-05-30 09:30:00,71.0,66.6,30.19,ENE,57,0.0,0.0,86,0.00,,---,0.00,VWS V14.01,2013-05-30 13:30:00,
2013-05-30 09:31:00,71.0,66.6,30.19,NE,56,0.0,0.0,86,0.00,,---,0.00,VWS V14.01,2013-05-30 13:31:00,
2013-05-30 09:36:00,71.2,66.5,30.19,ENE,57,0.0,0.0,85,0.00,,---,0.00,VWS V14.01,2013-05-30 13:36:00,
2013-05-30 09:40:00,71.3,66.6,30.19,NE,56,0.0,0.0,85,0.00,,---,0.00,VWS V14.01,2013-05-30 13:40:00,
2013-05-30 09:41:00,71.3,66.6,30.19,ENE,57,0.0,0.0,85,0.00,,---,0.00,VWS V14.01,2013-05-30 13:41:00,
2013-05-30 09:46:00,71.3,66.6,30.19,ENE,58,0.0,0.0,85,0.00,,---,0.00,VWS V14.01,2013-05-30 13:46:00,
2013-05-30 09:50:00,71.4,66.7,30.19,ENE,58,0.0,0.0,85,0.00,,---,0.00,VWS V14.01,2013-05-30 13:50:00,
2013-05-30 09:51:00,71.4,66.7,30.19,ENE,58,0.0,0.0,85,0.00,,---,0.00,VWS V14.01,2013-05-30 13:51:00,
2013-05-30 09:56:00,71.4,66.7,30.19,ENE,58,0.0,0.0,85,0.00,,---,0.00,VWS V14.01,2013-05-30 13:56:00,
2013-05-30 10:00:00,71.4,66.7,30.19,ENE,58,0.0,0.0,85,0.00,,---,0.00,VWS V14.01,2013-05-30 14:00:00,
2013-05-30 10:01:00,71.4,66.7,30.19,ENE,57,0.0,0.0,85,0.00,,---,0.00,VWS V14.01,2013-05-30 14:01:00,
2013-05-30 10:06:00,71.4,66.7,30.19,ENE,57,0.0,0.0,85,0.00,,---,0.00,VWS V14.01,2013-05-30 14:06:00,
2013-05-30 10:10:00,71.4,66.7,30.19,NE,56,0.0,0.0,85,0.00,,---,0.00,VWS V14.01,2013-05-30 14:10:00,
2013-05-30 10:11:00,71.4,66.7,30.19,NE,56,0.0,0.0,85,0.00,,---,0.00,VWS V14.01,2013-05-30 14:11:00,
2013-05-30 10:16:00,71.5,66.8,30.19,ENE,57,0.0,0.0,85,0.00,,---,0.00,VWS V14.01,2013-05-30 14:16:00,
2013-05-30 10:20:00,71.6,66.9,30.19,NE,56,0.0,0.0,85,0.00,,---,0.00,VWS V14.01,2013-05-30 14:20:00,
2013-05-30 10:21:00,71.6,66.9,30.19,ENE,57,0.0,0.0,85,0.00,,---,0.00,VWS V14.01,2013-05-30 14:21:00,
2013-05-30 10:26:00,71.7,66.6,30.19,ENE,58,0.0,0.0,84,0.00,,---,0.00,VWS V14.01,2013-05-30 14:26:00,
2013-05-30 10:30:00,71.8,67.1,30.19,ENE,57,0.0,0.0,85,0.00,,---,0.00,VWS V14.01,2013-05-30 14:30:00,
2013-05-30 10:31:00,71.8,66.7,30.19,NE,56,0.0,0.0,84,0.00,,---,0.00,VWS V14.01,2013-05-30 14:31:00,
2013-05-30 10:36:00,71.8,66.7,30.18,ENE,57,0.0,0.0,84,0.00,,---,0.00,VWS V14.01,2013-05-30 14:36:00,
2013-05-30 10:40:00,72.0,66.9,30.18,ENE,57,0.0,0.0,84,0.00,,---,0.00,VWS V14.01,2013-05-30 14:40:00,
2013-05-30 10:45:00,72.3,67.2,30.18,ENE,57,0.0,0.0,84,0.00,,---,0.00,VWS V14.01,2013-05-30 14:45:00,
2013-05-30 10:50:00,72.6,67.5,30.18,ENE,57,0.0,0.0,84,0.00,,---,0.00,VWS V14.01,2013-05-30 14:50:00,
2013-05-30 10:55:00,73.0,67.5,30.18,ENE,57,0.0,0.0,83,0.00,,---,0.00,VWS V14.01,2013-05-30 14:55:00,
2013-05-30 11:00:00,73.3,67.8,30.18,NE,56,0.0,0.0,83,0.00,,---,0.00,VWS V14.01,2013-05-30 15:00:00,
2013-05-30 11:05:00,73.8,68.3,30.17,NE,56,0.0,0.0,83,0.00,,---,0.00,VWS V14.01,2013-05-30 15:05:00,
2013-05-30 11:10:00,74.2,68.4,30.18,ENE,57,0.0,0.0,82,0.00,,---,0.00,VWS V14.01,2013-05-30 15:10:00,
2013-05-30 11:15:00,74.5,67.9,30.18,ENE,57,0.0,0.0,80,0.00,,---,0.00,VWS V14.01,2013-05-30 15:15:00,
2013-05-30 11:20:00,74.7,67.8,30.18,ENE,57,0.0,0.0,79,0.00,,---,0.00,VWS V14.01,2013-05-30 15:20:00,
2013-05-30 11:25:00,74.8,67.9,30.18,ENE,57,0.0,1.0,79,0.00,,---,0.00,VWS V14.01,2013-05-30 15:25:00,
2013-05-30 11:30:00,74.8,67.9,30.18,ENE,57,0.0,0.0,79,0.00,,---,0.00,VWS V14.01,2013-05-30 15:30:00,
2013-05-30 11:35:00,74.7,67.8,30.18,ENE,57,0.0,0.0,79,0.00,,---,0.00,VWS V14.01,2013-05-30 15:35:00,
2013-05-30 11:40:00,74.8,67.9,30.18,NE,42,0.0,0.0,79,0.00,,---,0.00,VWS V14.01,2013-05-30 15:40:00,
2013-05-30 11:45:00,75.2,67.9,30.17,North,8,0.0,1.0,78,0.00,,---,0.00,VWS V14.01,2013-05-30 15:45:00,
2013-05-30 11:50:00,75.6,67.9,30.17,North,8,0.0,0.0,77,0.00,,---,0.00,VWS V14.01,2013-05-30 15:50:00,
2013-05-30 11:55:00,76.2,67.7,30.17,ENE,70,0.0,1.0,75,0.00,,---,0.00,VWS V14.01,2013-05-30 15:55:00,
2013-05-30 12:00:00,77.1,68.2,30.17,ENE,71,0.0,0.0,74,0.00,,---,0.00,VWS V14.01,2013-05-30 16:00:00,
2013-05-30 12:05:00,77.1,67.8,30.17,ENE,69,0.0,0.0,73,0.00,,---,0.00,VWS V14.01,2013-05-30 16:05:00,
2013-05-30 12:10:00,77.0,68.5,30.17,ENE,69,0.0,0.0,75,0.00,,---,0.00,VWS V14.01,2013-05-30 16:10:00,
2013-05-30 12:15:00,77.0,68.5,30.17,SW,216,0.0,1.0,75,0.00,,---,0.00,VWS V14.01,2013-05-30 16:15:00,
2013-05-30 12:20:00,77.5,68.6,30.17,East,99,0.0,0.0,74,0.00,,---,0.00,VWS V14.01,2013-05-30 16:20:00,
2013-05-30 12:25:00,77.6,68.3,30.17,East,86,0.0,1.0,73,0.00,,---,0.00,VWS V14.01,2013-05-30 16:25:00,
2013-05-30 12:30:00,77.9,68.6,30.17,NNE,32,0.0,1.0,73,0.00,,---,0.00,VWS V14.01,2013-05-30 16:30:00,
2013-05-30 12:35:00,78.5,68.3,30.17,NE,34,0.0,1.0,71,0.00,,---,0.00,VWS V14.01,2013-05-30 16:35:00,
2013-05-30 12:40:00,78.9,68.7,30.16,NNE,28,0.0,0.0,71,0.00,,---,0.00,VWS V14.01,2013-05-30 16:40:00,
2013-05-30 12:45:00,79.3,69.1,30.16,NNE,13,0.0,1.0,71,0.00,,---,0.00,VWS V14.01,2013-05-30 16:45:00,
2013-05-30 12:50:00,79.6,68.5,30.16,WSW,246,0.0,0.0,69,0.00,,---,0.00,VWS V14.01,2013-05-30 16:50:00,
2013-05-30 12:55:00,80.4,68.9,30.16,NE,38,0.0,1.0,68,0.00,,---,0.00,VWS V14.01,2013-05-30 16:55:00,
2013-05-30 13:00:00,80.7,68.7,30.16,NE,37,0.0,1.0,67,0.00,,---,0.00,VWS V14.01,2013-05-30 17:00:00,
2013-05-30 13:05:00,80.7,67.8,30.16,NE,54,0.0,1.0,65,0.00,,---,0.00,VWS V14.01,2013-05-30 17:05:00,
2013-05-30 13:10:00,80.6,67.8,30.15,NE,43,0.0,0.0,65,0.00,,---,0.00,VWS V14.01,2013-05-30 17:10:00,
2013-05-30 13:15:00,80.8,67.9,30.15,West,270,0.0,1.0,65,0.00,,---,0.00,VWS V14.01,2013-05-30 17:15:00,
2013-05-30 13:20:00,81.0,68.1,30.15,ENE,62,0.0,0.0,65,0.00,,---,0.00,VWS V14.01,2013-05-30 17:20:00,
2013-05-30 13:25:00,81.4,68.1,30.15,North,4,0.0,1.0,64,0.00,,---,0.00,VWS V14.01,2013-05-30 17:25:00,
2013-05-30 13:30:00,81.1,67.3,30.15,WNW,295,0.0,0.0,63,0.00,,---,0.00,VWS V14.01,2013-05-30 17:30:00,
2013-05-30 13:35:00,81.1,67.3,30.14,ESE,111,0.0,1.0,63,0.00,,---,0.00,VWS V14.01,2013-05-30 17:35:00,
2013-05-30 13:40:00,81.5,68.2,30.14,WSW,244,0.0,1.0,64,0.00,,---,0.00,VWS V14.01,2013-05-30 17:40:00,
2013-05-30 13:45:00,82.1,67.3,30.14,East,89,0.0,1.0,61,0.00,,---,0.00,VWS V14.01,2013-05-30 17:45:00,
2013-05-30 13:50:00,82.3,67.5,30.14,ENE,76,0.0,1.0,61,0.00,,---,0.00,VWS V14.01,2013-05-30 17:50:00,
2013-05-30 13:55:00,82.6,66.3,30.14,East,86,0.0,1.0,58,0.00,,---,0.00,VWS V14.01,2013-05-30 17:55:00,
2013-05-30 14:00:00,82.7,66.9,30.13,NE,37,0.0,0.0,59,0.00,,---,0.00,VWS V14.01,2013-05-30 18:00:00,
2013-05-30 14:05:00,83.2,66.9,30.13,NE,51,0.0,1.0,58,0.00,,---,0.00,VWS V14.01,2013-05-30 18:05:00,
2013-05-30 14:10:00,83.1,66.8,30.13,West,260,0.0,0.0,58,0.00,,---,0.00,VWS V14.01,2013-05-30 18:10:00,
2013-05-30 14:15:00,83.0,66.2,30.13,NE,36,0.0,2.0,57,0.00,,---,0.00,VWS V14.01,2013-05-30 18:15:00,
2013-05-30 14:20:00,83.1,66.3,30.13,NE,48,0.0,0.0,57,0.00,,---,0.00,VWS V14.01,2013-05-30 18:20:00,
2013-05-30 14:25:00,83.1,67.3,30.13,NW,326,0.0,1.0,59,0.00,,---,0.00,VWS V14.01,2013-05-30 18:25:00,
2013-05-30 14:30:00,83.0,67.2,30.12,NE,34,1.0,1.0,59,0.00,,---,0.00,VWS V14.01,2013-05-30 18:30:00,
2013-05-30 14:35:00,83.3,66.5,30.12,NNE,15,0.0,1.0,57,0.00,,---,0.00,VWS V14.01,2013-05-30 18:35:00,
2013-05-30 14:40:00,83.6,67.3,30.12,NW,323,0.0,0.0,58,0.00,,---,0.00,VWS V14.01,2013-05-30 18:40:00,
2013-05-30 14:45:00,84.1,67.2,30.12,NNW,347,0.0,1.0,57,0.00,,---,0.00,VWS V14.01,2013-05-30 18:45:00,
2013-05-30 14:50:00,83.9,66.5,30.12,NE,47,0.0,0.0,56,0.00,,---,0.00,VWS V14.01,2013-05-30 18:50:00,
2013-05-30 14:55:00,83.7,66.3,30.12,NE,46,0.0,1.0,56,0.00,,---,0.00,VWS V14.01,2013-05-30 18:55:00,
2013-05-30 15:00:00,83.7,67.9,30.11,NE,43,0.0,0.0,59,0.00,,---,0.00,VWS V14.01,2013-05-30 19:00:00,
2013-05-30 15:05:00,83.9,66.0,30.11,WSW,248,0.0,1.0,55,0.00,,---,0.00,VWS V14.01,2013-05-30 19:05:00,
2013-05-30 15:10:00,84.3,67.4,30.11,West,277,0.0,0.0,57,0.00,,---,0.00,VWS V14.01,2013-05-30 19:10:00,
2013-05-30 15:15:00,84.2,67.3,30.11,NE,50,0.0,1.0,57,0.00,,---,0.00,VWS V14.01,2013-05-30 19:15:00,
2013-05-30 15:20:00,84.4,67.0,30.11,ENE,67,0.0,0.0,56,0.00,,---,0.00,VWS V14.01,2013-05-30 19:20:00,
2013-05-30 15:25:00,84.3,66.9,30.10,ENE,63,0.0,0.0,56,0.00,,---,0.00,VWS V14.01,2013-05-30 19:25:00,
2013-05-30 15:30:00,84.2,65.8,30.10,ENE,60,0.0,0.0,54,0.00,,---,0.00,VWS V14.01,2013-05-30 19:30:00,
2013-05-30 15:35:00,84.3,66.9,30.10,NE,37,0.0,0.0,56,0.00,,---,0.00,VWS V14.01,2013-05-30 19:35:00,
2013-05-30 15:40:00,84.4,65.9,30.10,NW,326,0.0,0.0,54,0.00,,---,0.00,VWS V14.01,2013-05-30 19:40:00,
2013-05-30 15:45:00,84.5,66.6,30.10,NE,34,0.0,1.0,55,0.00,,---,0.00,VWS V14.01,2013-05-30 19:45:00,
2013-05-30 15:50:00,84.3,66.4,30.10,NE,51,0.0,1.0,55,0.00,,---,0.00,VWS V14.01,2013-05-30 19:50:00,
2013-05-30 15:55:00,83.9,66.0,30.10,ENE,60,0.0,1.0,55,0.00,,---,0.00,VWS V14.01,2013-05-30 19:55:00,
2013-05-30 16:00:00,83.4,66.1,30.09,ENE,60,0.0,0.0,56,0.00,,---,0.00,VWS V14.01,2013-05-30 20:00:00,
2013-05-30 16:05:00,83.2,66.9,30.09,ENE,60,0.0,0.0,58,0.00,,---,0.00,VWS V14.01,2013-05-30 20:05:00,
2013-05-30 16:10:00,83.4,67.6,30.09,NE,47,0.0,0.0,59,0.00,,---,0.00,VWS V14.01,2013-05-30 20:10:00,
2013-05-30 16:15:00,83.7,67.9,30.09,NE,47,0.0,1.0,59,0.00,,---,0.00,VWS V14.01,2013-05-30 20:15:00,
2013-05-30 16:20:00,83.7,67.4,30.08,NNW,346,0.0,1.0,58,0.00,,---,0.00,VWS V14.01,2013-05-30 20:20:00,
2013-05-30 16:25:00,83.5,67.2,30.08,North,360,0.0,1.0,58,0.00,,---,0.00,VWS V14.01,2013-05-30 20:25:00,
2013-05-30 16:30:00,83.1,66.8,30.08,West,262,0.0,0.0,58,0.00,,---,0.00,VWS V14.01,2013-05-30 20:30:00,
2013-05-30 16:35:00,82.6,66.8,30.08,WSW,244,0.0,1.0,59,0.00,,---,0.00,VWS V14.01,2013-05-30 20:35:00,
2013-05-30 16:40:00,82.3,67.0,30.08,WSW,243,0.0,1.0,60,0.00,,---,0.00,VWS V14.01,2013-05-30 20:40:00,
2013-05-30 16:45:00,82.4,67.6,30.08,NE,44,1.0,2.0,61,0.00,,---,0.00,VWS V14.01,2013-05-30 20:45:00,
2013-05-30 16:50:00,82.5,65.8,30.08,NE,44,0.0,0.0,57,0.00,,---,0.00,VWS V14.01,2013-05-30 20:50:00,
2013-05-30 16:55:00,82.4,66.2,30.08,East,86,0.0,0.0,58,0.00,,---,0.00,VWS V14.01,2013-05-30 20:55:00,
2013-05-30 17:00:00,82.2,66.9,30.08,East,86,0.0,0.0,60,0.00,,---,0.00,VWS V14.01,2013-05-30 21:00:00,
2013-05-30 17:05:00,81.8,66.6,30.08,East,86,0.0,1.0,60,0.00,,---,0.00,VWS V14.01,2013-05-30 21:05:00,
2013-05-30 17:10:00,81.8,67.5,30.08,East,86,0.0,0.0,62,0.00,,---,0.00,VWS V14.01,2013-05-30 21:10:00,
2013-05-30 17:15:00,81.8,67.5,30.08,East,86,0.0,0.0,62,0.00,,---,0.00,VWS V14.01,2013-05-30 21:15:00,
2013-05-30 17:20:00,81.6,66.9,30.08,WSW,255,0.0,1.0,61,0.00,,---,0.00,VWS V14.01,2013-05-30 21:20:00,
2013-05-30 17:25:00,81.3,66.6,30.08,WSW,255,0.0,1.0,61,0.00,,---,0.00,VWS V14.01,2013-05-30 21:25:00,
2013-05-30 17:30:00,81.2,66.0,30.07,WNW,289,0.0,0.0,60,0.00,,---,0.00,VWS V14.01,2013-05-30 21:30:00,
2013-05-30 17:35:00,81.4,66.7,30.07,WNW,289,0.0,0.0,61,0.00,,---,0.00,VWS V14.01,2013-05-30 21:35:00,
2013-05-30 17:40:00,82.0,67.2,30.07,NNE,23,0.0,0.0,61,0.00,,---,0.00,VWS V14.01,2013-05-30 21:40:00,
2013-05-30 17:45:00,82.6,67.8,30.07,NE,44,0.0,1.0,61,0.00,,---,0.00,VWS V14.01,2013-05-30 21:45:00,
2013-05-30 17:50:00,82.4,67.1,30.07,NE,44,0.0,0.0,60,0.00,,---,0.00,VWS V14.01,2013-05-30 21:50:00,
2013-05-30 17:55:00,82.1,65.9,30.06,NE,44,0.0,0.0,58,0.00,,---,0.00,VWS V14.01,2013-05-30 21:55:00,
2013-05-30 18:00:00,81.9,66.7,30.06,NE,47,0.0,0.0,60,0.00,,---,0.00,VWS V14.01,2013-05-30 22:00:00,
2013-05-30 18:05:00,81.7,66.9,30.07,NE,49,0.0,1.0,61,0.00,,---,0.00,VWS V14.01,2013-05-30 22:05:00,
2013-05-30 18:10:00,81.8,67.1,30.06,NE,47,0.0,0.0,61,0.00,,---,0.00,VWS V14.01,2013-05-30 22:10:00,
2013-05-30 18:15:00,81.4,66.2,30.07,NE,46,0.0,0.0,60,0.00,,---,0.00,VWS V14.01,2013-05-30 22:15:00,
2013-05-30 18:20:00,81.0,66.3,30.07,NE,47,0.0,0.0,61,0.00,,---,0.00,VWS V14.01,2013-05-30 22:20:00,
2013-05-30 18:25:00,80.7,66.0,30.07,SSE,159,0.0,0.0,61,0.00,,---,0.00,VWS V14.01,2013-05-30 22:25:00,
2013-05-30 18:30:00,80.8,66.1,30.07,SE,136,0.0,0.0,61,0.00,,---,0.00,VWS V14.01,2013-05-30 22:30:00,
2013-05-30 18:35:00,80.9,66.2,30.07,East,91,0.0,1.0,61,0.00,,---,0.00,VWS V14.01,2013-05-30 22:35:00,
2013-05-30 18:40:00,80.8,66.6,30.07,East,90,0.0,0.0,62,0.00,,---,0.00,VWS V14.01,2013-05-30 22:40:00,
2013-05-30 18:45:00,80.6,66.4,30.07,East,88,0.0,0.0,62,0.00,,---,0.00,VWS V14.01,2013-05-30 22:45:00,
2013-05-30 18:50:00,80.8,66.6,30.07,East,82,0.0,0.0,62,0.00,,---,0.00,VWS V14.01,2013-05-30 22:50:00,
2013-05-30 18:55:00,81.4,66.7,30.07,East,81,0.0,0.0,61,0.00,,---,0.00,VWS V14.01,2013-05-30 22:55:00,
2013-05-30 19:00:00,81.7,66.5,30.07,East,81,0.0,0.0,60,0.00,,---,0.00,VWS V14.01,2013-05-30 23:00:00,
2013-05-30 19:05:00,81.3,66.6,30.07,East,81,0.0,0.0,61,0.00,,---,0.00,VWS V14.01,2013-05-30 23:05:00,
2013-05-30 19:10:00,80.8,66.6,30.07,East,81,0.0,0.0,62,0.00,,---,0.00,VWS V14.01,2013-05-30 23:10:00,
2013-05-30 19:15:00,80.3,66.1,30.06,East,82,0.0,0.0,62,0.00,,---,0.00,VWS V14.01,2013-05-30 23:15:00,
2013-05-30 19:20:00,80.1,66.4,30.07,East,82,0.0,0.0,63,0.00,,---,0.00,VWS V14.01,2013-05-30 23:20:00,
2013-05-30 19:25:00,80.0,66.7,30.06,East,82,0.0,0.0,64,0.00,,---,0.00,VWS V14.01,2013-05-30 23:25:00,
2013-05-30 19:30:00,79.7,66.5,30.06,East,82,0.0,0.0,64,0.00,,---,0.00,VWS V14.01,2013-05-30 23:30:00,
2013-05-30 19:35:00,79.5,66.3,30.06,East,82,0.0,0.0,64,0.00,,---,0.00,VWS V14.01,2013-05-30 23:35:00,
2013-05-30 19:40:00,79.3,66.1,30.06,East,82,0.0,0.0,64,0.00,,---,0.00,VWS V14.01,2013-05-30 23:40:00,
2013-05-30 19:45:00,79.4,66.2,30.07,East,82,0.0,0.0,64,0.00,,---,0.00,VWS V14.01,2013-05-30 23:45:00,
2013-05-30 19:50:00,79.5,66.7,30.07,East,82,0.0,0.0,65,0.00,,---,0.00,VWS V14.01,2013-05-30 23:50:00,
2013-05-30 19:55:00,79.4,66.6,30.07,East,82,0.0,0.0,65,0.00,,---,0.00,VWS V14.01,2013-05-30 23:55:00,
2013-05-30 20:00:00,79.2,66.4,30.07,East,82,0.0,0.0,65,0.00,,---,0.00,VWS V14.01,2013-05-31 00:00:00,
2013-05-30 20:05:00,78.9,66.6,30.07,East,82,0.0,0.0,66,0.00,,---,0.00,VWS V14.01,2013-05-31 00:05:00,
2013-05-30 20:10:00,78.6,66.3,30.07,East,82,0.0,0.0,66,0.00,,---,0.00,VWS V14.01,2013-05-31 00:10:00,
2013-05-30 20:15:00,78.7,66.4,30.06,East,82,0.0,0.0,66,0.00,,---,0.00,VWS V14.01,2013-05-31 00:15:00,
2013-05-30 20:20:00,78.8,66.5,30.07,East,82,0.0,0.0,66,0.00,,---,0.00,VWS V14.01,2013-05-31 00:20:00,
2013-05-30 20:25:00,78.6,66.3,30.06,East,82,0.0,0.0,66,0.00,,---,0.00,VWS V14.01,2013-05-31 00:25:00,
2013-05-30 20:30:00,78.3,66.0,30.07,East,82,0.0,0.0,66,0.00,,---,0.00,VWS V14.01,2013-05-31 00:30:00,
2013-05-30 20:35:00,77.9,66.1,30.07,East,82,0.0,0.0,67,0.00,,---,0.00,VWS V14.01,2013-05-31 00:35:00,
2013-05-30 20:40:00,77.7,66.3,30.07,East,82,0.0,0.0,68,0.00,,---,0.00,VWS V14.01,2013-05-31 00:40:00,
2013-05-30 20:45:00,77.6,66.2,30.07,East,82,0.0,0.0,68,0.00,,---,0.00,VWS V14.01,2013-05-31 00:45:00,
2013-05-30 20:50:00,77.5,66.5,30.07,East,82,0.0,0.0,69,0.00,,---,0.00,VWS V14.01,2013-05-31 00:50:00,
2013-05-30 20:55:00,77.2,66.2,30.07,East,82,0.0,0.0,69,0.00,,---,0.00,VWS V14.01,2013-05-31 00:55:00,
2013-05-30 21:00:00,76.9,66.4,30.07,East,82,0.0,0.0,70,0.00,,---,0.00,VWS V14.01,2013-05-31 01:00:00,
2013-05-30 21:05:00,76.5,66.0,30.07,East,82,0.0,0.0,70,0.00,,---,0.00,VWS V14.01,2013-05-31 01:05:00,
2013-05-30 21:10:00,76.2,66.1,30.07,East,82,0.0,0.0,71,0.00,,---,0.00,VWS V14.01,2013-05-31 01:10:00,
2013-05-30 21:15:00,76.0,66.3,30.07,East,82,0.0,0.0,72,0.00,,---,0.00,VWS V14.01,2013-05-31 01:15:00,
2013-05-30 21:20:00,76.3,66.6,30.07,East,82,0.0,0.0,72,0.00,,---,0.00,VWS V14.01,2013-05-31 01:20:00,
2013-05-30 21:25:00,76.4,66.3,30.07,East,82,0.0,0.0,71,0.00,,---,0.00,VWS V14.01,2013-05-31 01:25:00,
2013-05-30 21:30:00,76.3,66.2,30.07,East,82,0.0,0.0,71,0.00,,---,0.00,VWS V14.01,2013-05-31 01:30:00,
2013-05-30 21:35:00,76.0,66.3,30.08,East,82,0.0,0.0,72,0.00,,---,0.00,VWS V14.01,2013-05-31 01:35:00,
2013-05-30 21:40:00,75.7,66.4,30.08,East,82,0.0,0.0,73,0.00,,---,0.00,VWS V14.01,2013-05-31 01:40:00,
2013-05-30 21:45:00,75.4,66.2,30.08,East,82,0.0,0.0,73,0.00,,---,0.00,VWS V14.01,2013-05-31 01:45:00,
2013-05-30 21:50:00,75.1,66.2,30.08,East,82,0.0,0.0,74,0.00,,---,0.00,VWS V14.01,2013-05-31 01:50:00,
2013-05-30 21:55:00,74.9,66.1,30.08,East,82,0.0,0.0,74,0.00,,---,0.00,VWS V14.01,2013-05-31 01:55:00,
2013-05-30 22:00:00,74.7,66.3,30.08,East,82,0.0,0.0,75,0.00,,---,0.00,VWS V14.01,2013-05-31 02:00:00,
2013-05-30 22:05:00,74.9,66.4,30.08,East,82,0.0,0.0,75,0.00,,---,0.00,VWS V14.01,2013-05-31 02:05:00,
2013-05-30 22:10:00,75.0,66.6,30.08,East,82,0.0,0.0,75,0.00,,---,0.00,VWS V14.01,2013-05-31 02:10:00,
2013-05-30 22:15:00,74.9,66.4,30.09,East,82,0.0,0.0,75,0.00,,---,0.00,VWS V14.01,2013-05-31 02:15:00,
2013-05-30 22:20:00,74.6,66.5,30.09,East,82,0.0,0.0,76,0.00,,---,0.00,VWS V14.01,2013-05-31 02:20:00,
2013-05-30 22:25:00,74.4,66.3,30.09,East,82,0.0,0.0,76,0.00,,---,0.00,VWS V14.01,2013-05-31 02:25:00,
2013-05-30 22:30:00,74.2,66.5,30.09,East,82,0.0,0.0,77,0.00,,---,0.00,VWS V14.01,2013-05-31 02:30:00,
2013-05-30 22:35:00,73.9,66.2,30.09,East,82,0.0,0.0,77,0.00,,---,0.00,VWS V14.01,2013-05-31 02:35:00,
2013-05-30 22:40:00,73.7,66.4,30.09,East,82,0.0,0.0,78,0.00,,---,0.00,VWS V14.01,2013-05-31 02:40:00,
2013-05-30 22:45:00,73.5,66.2,30.09,East,82,0.0,0.0,78,0.00,,---,0.00,VWS V14.01,2013-05-31 02:45:00,
2013-05-30 22:50:00,73.3,66.4,30.09,East,82,0.0,0.0,79,0.00,,---,0.00,VWS V14.01,2013-05-31 02:50:00,
2013-05-30 22:55:00,73.2,66.7,30.09,East,82,0.0,0.0,80,0.00,,---,0.00,VWS V14.01,2013-05-31 02:55:00,
2013-05-30 23:00:00,73.8,66.9,30.09,East,82,0.0,0.0,79,0.00,,---,0.00,VWS V14.01,2013-05-31 03:00:00,
2013-05-30 23:05:00,74.3,67.0,30.09,East,82,0.0,0.0,78,0.00,,---,0.00,VWS V14.01,2013-05-31 03:05:00,
2013-05-30 23:10:00,74.2,66.5,30.09,East,82,0.0,0.0,77,0.00,,---,0.00,VWS V14.01,2013-05-31 03:10:00,
2013-05-30 23:15:00,73.9,66.6,30.09,East,82,0.0,0.0,78,0.00,,---,0.00,VWS V14.01,2013-05-31 03:15:00,
2013-05-30 23:20:00,73.7,66.4,30.10,East,82,0.0,0.0,78,0.00,,---,0.00,VWS V14.01,2013-05-31 03:20:00,
2013-05-30 23:25:00,73.5,66.6,30.10,East,82,0.0,0.0,79,0.00,,---,0.00,VWS V14.01,2013-05-31 03:25:00,
2013-05-30 23:30:00,73.3,66.4,30.10,East,82,0.0,0.0,79,0.00,,---,0.00,VWS V14.01,2013-05-31 03:30:00,
2013-05-30 23:35:00,73.1,66.2,30.10,East,82,0.0,0.0,79,0.00,,---,0.00,VWS V14.01,2013-05-31 03:35:00,
2013-05-30 23:40:00,73.1,66.6,30.10,East,82,0.0,0.0,80,0.00,,---,0.00,VWS V14.01,2013-05-31 03:40:00,
2013-05-30 23:45:00,72.9,66.4,30.10,East,81,0.0,0.0,80,0.00,,---,0.00,VWS V14.01,2013-05-31 03:45:00,
2013-05-30 23:50:00,72.8,66.3,30.10,East,81,0.0,0.0,80,0.00,,---,0.00,VWS V14.01,2013-05-31 03:50:00,
2013-05-30 23:55:00,73.4,66.9,30.10,East,81,0.0,1.0,80,0.00,,---,0.00,VWS V14.01,2013-05-31 03:55:00,